[[{"header":{"parameterUnit":"m.s-1","parameterCategory":1,"la1":30.2991,"la2":30.254,"lo1":-89.0895,"lo2":-89.0444,"dy":0.0017,"dx":0.0017,"nx":28,"ny":28,"refTime":"2023-10-09T09:00:00:Z","depth":0,"parameterNumber":2,"parameterNumberName":"U-component_of_WINDS"},"data":[0,0,0,0,0,0,0,0,0,0,0,0,0,0,0,0,0,0,0,0,0,0,0,0,0,0,0,0,0,0,0,0,0,0,0,0,0,0,0,0,0,0,0,0,0,0,0,0,0,0,0,0,0,0,0,0,0,0,0.1924,0.1923,0,0.1818,0.1817,0.1815,0.1728,0.1727,0.1727,0.1726,0.1616,0.1614,0.1612,0,0,0,0,0,0,0,0,0,0,0,0,0,0.2052,0.205,0.1925,0.1923,0.1922,0.1818,0.1817,0.1815,0.1729,0.1727,0.1726,0.1725,0.1616,0.1614,0.1611,0,0,0,0,0,0,0,0,0,0,0,0,0,0.1976,0.205,0.1925,0.1866,0.186,0.1818,0.1817,0.1815,0.1729,0.1727,0.1726,0.1725,0.1617,0.1614,0.1611,0.1619,0,0,0.1602,0.16,0,0,0,0,0,0,0,0,0.1981,0.1972,0.1876,0.187,0.1863,0.1785,0.1821,0.1749,0.1729,0.1779,0.1726,0.1724,0.1673,0.1665,0.1648,0.1614,0.1609,0.1601,0.1599,0.1598,0.1597,0,0,0,0,0,0,0,0.1986,0.1976,0.1882,0.1875,0.1867,0.1845,0.1833,0.1807,0.1735,0.1774,0.1768,0.1756,0.1669,0.1651,0.1645,0.1607,0.1601,0.1599,0.1597,0.1595,0.1575,0.1576,0,0,0,0,0,0,0.2001,0.1981,0.1886,0.1879,0.192,0.1844,0.183,0.1811,0.1735,0.1722,0.1757,0.1752,0.1657,0.1649,0.1641,0.1646,0.1598,0.1595,0.1593,0.1574,0.1575,0.1577,0,0,0,0,0,0,0.2004,0.1993,0.189,0.1928,0.1913,0.1843,0.1823,0.181,0.1792,0.1722,0.1709,0.1753,0.1656,0.1645,0.1625,0.1641,0.1594,0.1591,0.1572,0.1574,0.1576,0.1657,0,0,0,0,0,0,0.2008,0.1995,0.1997,0.1929,0.1912,0.1877,0.1824,0.1809,0.1787,0.178,0.1714,0.1702,0.1654,0.163,0.1622,0.1636,0.1588,0.157,0.1573,0.1575,0.1653,0.1662,0.1669,0,0,0,0,0,0.2013,0.2024,0.1998,0.1987,0.1913,0.1878,0.1868,0.1813,0.1789,0.1791,0.1746,0.1704,0.164,0.1629,0.1619,0.1632,0.1569,0.1572,0.1575,0.1649,0.166,0.1669,0,0,0,0,0,0,0.2095,0.2014,0.1984,0.1973,0.1933,0.1863,0.1864,0.1826,0.1792,0.1787,0.1719,0.1705,0.1693,0.166,0.1649,0.1636,0.1599,0.1601,0.1659,0.1669,0.1677,0.1686,0.1586,0,0,0,0,0,0.2112,0.2091,0.202,0.2018,0.1999,0.1935,0.1918,0.1879,0.1835,0.1817,0.1771,0.1729,0.17,0.1682,0.1651,0.1646,0.1632,0.1651,0.1659,0.1666,0.1669,0.1666,0.1674,0.1587,0.1587,0.1586,0,0,0.2148,0.21,0.2091,0.2033,0.1998,0.1977,0.1922,0.1902,0.1886,0.1814,0.1793,0.1757,0.1706,0.1695,0.1688,0.1667,0.1689,0.167,0.1676,0.1675,0.167,0.1678,0.1685,0.1589,0.1588,0.1588,0,0,0.2202,0.2163,0.2157,0.2123,0.207,0.2027,0.2026,0.1961,0.1935,0.1913,0.1859,0.1839,0.1789,0.1756,0.1732,0.1773,0.1734,0.1764,0.1809,0.1807,0.1814,0.1819,0.1836,0.1843,0.1767,0.1767,0.1767,0,0.2252,0.2219,0.2159,0.2143,0.212,0.2054,0.2048,0.2017,0.1957,0.1942,0.192,0.1857,0.1818,0.1798,0.1809,0.1791,0.1788,0.1773,0.1817,0.1823,0.1827,0.1842,0.1849,0.1771,0.1771,0.177,0.177,0,0.2285,0.2263,0.2264,0.2209,0.2185,0.2174,0.2113,0.2096,0.2059,0.2019,0.1997,0.1948,0.1906,0.1898,0.1861,0.1874,0.1863,0.183,0.1792,0.1841,0.1854,0.1859,0.1777,0.1776,0.1774,0.1773,0,0,0.239,0.2301,0.2303,0.2277,0.2214,0.2195,0.2181,0.2141,0.2129,0.2088,0.2076,0.2035,0.2005,0.1978,0.1936,0.1934,0.1972,0.1901,0.1899,0.1918,0.1985,0.2013,0.2021,0.1945,0.1946,0.1946,0.199,0,0.2436,0.2408,0.2354,0.2343,0.2323,0.2259,0.2247,0.2206,0.2168,0.2145,0.2102,0.2075,0.2035,0.2019,0.2014,0.1969,0.1985,0.1965,0.1934,0.1934,0.1952,0.2027,0.2056,0.21,0.1995,0.1996,0.1996,0,0.2486,0.2451,0.2439,0.2378,0.2367,0.2357,0.2316,0.2294,0.2247,0.2219,0.219,0.2144,0.2126,0.209,0.2064,0.2052,0.2035,0.2011,0.2011,0.2009,0.197,0.2029,0.2113,0.2121,0.2004,0.2003,0.2002,0,0.2568,0.2517,0.2503,0.2483,0.241,0.2405,0.2374,0.2326,0.2305,0.2269,0.2255,0.2217,0.2197,0.2168,0.2114,0.2092,0.2095,0.2054,0.2073,0.2075,0.2079,0.208,0.2165,0.2064,0.2064,0.2064,0.2064,0,0.2626,0.2622,0.2539,0.2531,0.2525,0.2461,0.2456,0.2419,0.2377,0.2361,0.2302,0.2288,0.2215,0.2193,0.215,0.2137,0.2127,0.2105,0.2094,0.2112,0.2115,0.2103,0.2099,0.2066,0.2065,0.2065,0.2065,0,0.2717,0.2661,0.2643,0.2575,0.2558,0.2557,0.2499,0.2489,0.2446,0.2427,0.2418,0.2352,0.2323,0.2265,0.2219,0.219,0.2188,0.2166,0.2204,0.2198,0.2222,0.2222,0.2303,0.2312,0.2204,0.2205,0.2206,0,0.276,0.2755,0.2688,0.2673,0.2645,0.2621,0.2601,0.2537,0.2518,0.2464,0.2461,0.2427,0.2397,0.2353,0.23,0.2265,0.2245,0.2275,0.2239,0.2258,0.2248,0.2251,0.2251,0.2285,0.2286,0.2287,0.2288,0,0.2843,0.2815,0.2788,0.2751,0.2728,0.2695,0.2659,0.265,0.2579,0.256,0.253,0.2506,0.246,0.2427,0.2384,0.2352,0.231,0.23,0.2303,0.2323,0.2346,0.2337,0.223,0.2299,0.2298,0.2297,0.2297,0.2296,0.2913,0.2906,0.2858,0.2829,0.2796,0.2764,0.2752,0.2708,0.2682,0.264,0.2603,0.2577,0.2529,0.2467,0.2438,0.2416,0.2395,0.2399,0.24,0.2403,0.2412,0.2347,0.2407,0.2407,0.2407,0.2406,0.2406,0,0.2995,0.296,0.2935,0.2887,0.2865,0.2825,0.2783,0.2768,0.2745,0.2704,0.2676,0.2642,0.261,0.2555,0.2518,0.2512,0.2491,0.2504,0.2506,0.25,0.2431,0.2434,0.2522,0.2522,0.2522,0.2522,0.2522,0.2522,0.3035,0.3023,0.299,0.2961,0.2925,0.29,0.288,0.285,0.2818,0.2782,0.2756,0.272,0.2674,0.2633,0.2602,0.2587,0.2578,0.2598,0.2577,0.2515,0.2504,0.2494,0.2496,0.2596,0.2596,0.2647,0.2648,0.2648]},{"header":{"parameterUnit":"m.s-1","parameterCategory":1,"la1":30.2991,"la2":30.254,"lo1":-89.0895,"lo2":-89.0444,"dy":0.0017,"dx":0.0017,"nx":28,"ny":28,"refTime":"2023-10-09T09:00:00:Z","depth":0,"parameterNumber":3,"parameterNumberName":"V-component_of_WINDS"},"data":[0,0,0,0,0,0,0,0,0,0,0,0,0,0,0,0,0,0,0,0,0,0,0,0,0,0,0,0,0,0,0,0,0,0,0,0,0,0,0,0,0,0,0,0,0,0,0,0,0,0,0,0,0,0,0,0,0,0,-1.963,-1.9631,0,-1.9675,-1.9675,-1.9676,-1.9676,-1.9675,-1.9675,-1.9674,-1.9719,-1.972,-1.9722,0,0,0,0,0,0,0,0,0,0,0,0,0,-1.9543,-1.9545,-1.963,-1.9631,-1.9631,-1.9675,-1.9676,-1.9676,-1.9676,-1.9675,-1.9674,-1.9674,-1.9718,-1.972,-1.9722,0,0,0,0,0,0,0,0,0,0,0,0,0,-1.9584,-1.9545,-1.963,-1.9636,-1.9638,-1.9675,-1.9676,-1.9676,-1.9676,-1.9675,-1.9674,-1.9673,-1.9717,-1.972,-1.9722,-1.9756,0,0,-1.973,-1.9731,0,0,0,0,0,0,0,0,-1.9582,-1.9587,-1.9635,-1.9636,-1.9637,-1.9669,-1.9661,-1.9703,-1.9676,-1.9661,-1.9674,-1.9673,-1.9703,-1.9706,-1.9717,-1.9758,-1.976,-1.973,-1.9732,-1.9733,-1.9734,0,0,0,0,0,0,0,-1.9579,-1.9585,-1.9648,-1.9636,-1.9637,-1.9637,-1.9642,-1.9669,-1.9686,-1.9663,-1.9663,-1.9668,-1.9703,-1.9714,-1.9718,-1.976,-1.973,-1.9733,-1.9734,-1.9735,-1.9831,-1.9832,0,0,0,0,0,0,-1.9575,-1.9583,-1.9646,-1.9649,-1.9607,-1.9639,-1.9644,-1.966,-1.9686,-1.9689,-1.9669,-1.9668,-1.971,-1.9715,-1.9719,-1.976,-1.9733,-1.9736,-1.9737,-1.983,-1.9831,-1.9832,0,0,0,0,0,0,-1.9573,-1.958,-1.9645,-1.9616,-1.9624,-1.9641,-1.9659,-1.9661,-1.9672,-1.9691,-1.9694,-1.9677,-1.971,-1.9716,-1.9747,-1.9761,-1.9737,-1.9739,-1.9829,-1.983,-1.9832,-1.9841,0,0,0,0,0,0,-1.957,-1.958,-1.9593,-1.9616,-1.9626,-1.9672,-1.966,-1.9662,-1.9677,-1.9676,-1.9699,-1.9702,-1.9709,-1.9743,-1.9749,-1.9764,-1.9741,-1.9828,-1.9829,-1.9831,-1.984,-1.9843,-1.9846,0,0,0,0,0,-1.9567,-1.9594,-1.9594,-1.9601,-1.9643,-1.9673,-1.9678,-1.9686,-1.9678,-1.9691,-1.9703,-1.9701,-1.9759,-1.9746,-1.9753,-1.9769,-1.9827,-1.9829,-1.9831,-1.9838,-1.9842,-1.9846,0,0,0,0,0,0,-1.9571,-1.9597,-1.9597,-1.9632,-1.965,-1.9673,-1.9689,-1.969,-1.9711,-1.9709,-1.9718,-1.9723,-1.9754,-1.9765,-1.975,-1.9803,-1.9792,-1.9795,-1.9795,-1.9799,-1.9802,-1.9798,-1.9743,0,0,0,0,0,-1.9576,-1.9599,-1.962,-1.9648,-1.9658,-1.9672,-1.9685,-1.969,-1.9709,-1.9717,-1.9731,-1.9749,-1.9771,-1.9786,-1.9807,-1.9841,-1.9846,-1.9856,-1.9859,-1.9861,-1.9864,-1.9883,-1.9888,-1.9839,-1.9839,-1.9839,0,0,-1.9586,-1.9603,-1.9617,-1.965,-1.9664,-1.9687,-1.9678,-1.9703,-1.972,-1.972,-1.9751,-1.9762,-1.9783,-1.9815,-1.9831,-1.9825,-1.9879,-1.9864,-1.9866,-1.9868,-1.9886,-1.989,-1.9894,-1.9841,-1.9841,-1.984,0,0,-1.9617,-1.9632,-1.9657,-1.9672,-1.9695,-1.9704,-1.971,-1.9733,-1.974,-1.9771,-1.9772,-1.9792,-1.983,-1.9845,-1.9857,-1.9893,-1.9892,-1.99,-1.9915,-1.9933,-1.9937,-1.994,-1.9953,-1.9957,-1.9903,-1.9903,-1.9903,0,-1.9627,-1.9661,-1.967,-1.9695,-1.9709,-1.9711,-1.9737,-1.9751,-1.9779,-1.9788,-1.9782,-1.983,-1.9844,-1.988,-1.9889,-1.9899,-1.9906,-1.9897,-1.9936,-1.9939,-1.9942,-1.9954,-1.9959,-1.9904,-1.9904,-1.9903,-1.9903,0,-1.9672,-1.9696,-1.9714,-1.9742,-1.9758,-1.9783,-1.9795,-1.981,-1.9814,-1.9824,-1.9855,-1.9872,-1.9896,-1.9906,-1.9909,-1.9942,-1.9938,-1.9934,-1.9922,-1.9948,-1.9959,-1.9964,-1.9905,-1.9904,-1.9904,-1.9904,0,0,-1.9706,-1.9738,-1.9744,-1.9757,-1.9782,-1.98,-1.9825,-1.985,-1.9863,-1.9882,-1.9903,-1.9935,-1.9931,-1.9945,-1.9951,-1.9966,-1.9993,-1.996,-1.9961,-1.9965,-2.003,-2.0033,-2.0038,-1.9993,-1.9994,-1.9995,-2.0029,0,-1.9739,-1.9783,-1.9792,-1.983,-1.9853,-1.9855,-1.9877,-1.9894,-1.9904,-1.9924,-1.9935,-1.9957,-1.9951,-1.9959,-1.9975,-1.9987,-2.0006,-1.9985,-2.0012,-2.0013,-2.0006,-2.0044,-2.0047,-2.0078,-2.0033,-2.0034,-2.0034,0,-1.9783,-1.9803,-1.9844,-1.9866,-1.9876,-1.9895,-1.9918,-1.9937,-1.9957,-1.9963,-1.9979,-1.9982,-2.0008,-1.9996,-2.0031,-2.0016,-2.0027,-2.0035,-2.0036,-2.0039,-2.0025,-2.0047,-2.0088,-2.0093,-2.0042,-2.0041,-2.004,0,-1.9802,-1.9841,-1.987,-1.9881,-1.9907,-1.992,-1.9932,-1.9951,-1.9965,-1.9985,-1.9995,-2.0017,-2.003,-2.0047,-2.0056,-2.0047,-2.009,-2.0079,-2.0096,-2.0095,-2.0104,-2.0103,-2.0147,-2.0113,-2.0113,-2.0113,-2.0112,0,-1.9838,-1.9862,-1.9879,-1.9897,-1.9925,-1.9935,-1.9962,-1.9973,-1.999,-2.001,-2.0013,-2.0032,-2.0043,-2.0063,-2.007,-2.0098,-2.0104,-2.0109,-2.011,-2.0108,-2.0107,-2.0116,-2.0114,-2.0114,-2.0113,-2.0113,-2.0113,0,-1.9864,-1.9877,-1.9909,-1.9931,-1.9937,-1.9957,-1.9976,-1.9993,-2.0003,-2.0028,-2.0035,-2.005,-2.0074,-2.0085,-2.0114,-2.0119,-2.0151,-2.0151,-2.0144,-2.0144,-2.016,-2.0158,-2.021,-2.0218,-2.0179,-2.0179,-2.0179,0,-1.9886,-1.9905,-1.9929,-1.9943,-1.9955,-1.9977,-1.9992,-2.0002,-2.0017,-2.0041,-2.0055,-2.0079,-2.0099,-2.0137,-2.0151,-2.0173,-2.0173,-2.019,-2.0177,-2.0174,-2.0173,-2.0172,-2.0174,-2.0192,-2.0193,-2.0193,-2.0193,0,-1.9922,-1.9927,-1.9949,-1.9972,-1.9989,-2.0008,-2.0026,-2.0037,-2.0051,-2.0067,-2.0092,-2.0107,-2.0137,-2.0161,-2.0184,-2.0195,-2.0196,-2.0198,-2.0202,-2.02,-2.0195,-2.0198,-2.015,-2.0196,-2.0196,-2.0196,-2.0196,-2.0195,-1.9947,-1.9964,-1.9984,-2.0007,-2.0022,-2.0039,-2.0057,-2.0069,-2.009,-2.0115,-2.012,-2.0146,-2.0165,-2.0196,-2.0209,-2.0229,-2.0225,-2.0232,-2.0234,-2.0235,-2.0236,-2.0193,-2.0233,-2.0233,-2.0233,-2.0233,-2.0233,0,-1.9983,-1.9996,-2.0018,-2.0043,-2.0062,-2.0062,-2.0082,-2.0097,-2.012,-2.0138,-2.0157,-2.0185,-2.0208,-2.0224,-2.0247,-2.026,-2.0261,-2.0266,-2.0265,-2.0267,-2.0238,-2.0232,-2.0265,-2.0265,-2.0265,-2.0265,-2.0265,-2.0265,-2.0004,-2.0033,-2.004,-2.0076,-2.0089,-2.0115,-2.0127,-2.0142,-2.0157,-2.0188,-2.0207,-2.0217,-2.0234,-2.0258,-2.0279,-2.0283,-2.0291,-2.0296,-2.03,-2.0273,-2.0269,-2.0266,-2.026,-2.0298,-2.0298,-2.0327,-2.0327,-2.0327]}]]